Bergerac, France

12:35 AM CEST on April 30, 2017 (GMT +0200)
Roumaniere

Weather History for LFBE - May, 2013

Change the Weather History Date:

Sunday, May 5, 2013

  Actual Average Record
Temperature  
Mean Temperature 58 °F -  
Max Temperature 75 °F - - ()
Min Temperature 41 °F - - ()
Degree Days  
Heating Degree Days 7    
Growing Degree Days 8 (Base 50)    
Moisture  
Dew Point 45 °F    
Average Humidity 66    
Maximum Humidity 100    
Minimum Humidity 29    
Precipitation  
Precipitation 0.00 in - - ()
Sea Level Pressure  
Sea Level Pressure 30.14 in    
Wind  
Wind Speed 3 mph ()    
Max Wind Speed 10 mph    
Max Gust Speed -    
Visibility 6.0 miles    
Events      
T = Trace of Precipitation, MM = Missing Value Source: Averaged Metar Reports

Daily Weather History Graph

Daily Weather History Graph

Search for Another Location

Airport or City:

Trip Planner

Search our weather history database for the weather conditions in past years. The results will help you decide how hot, cold, wet, or windy it might be!

Date:

Astronomy

May. 05, 2013 Rise Set
Actual Time 6:41 AM CEST 9:08 PM CEST
Civil Twilight 6:09 AM CEST 9:40 PM CEST
Nautical Twilight 5:28 AM CEST 10:21 PM CEST
Astronomical Twilight 4:42 AM CEST 11:08 PM CEST
Moon 4:16 AM CEST (5/5) 4:41 PM CEST (5/5)
Length of Visible Light 15h 31m
Length of Day
14h 26m
Waning Crescent, 20% of the Moon is Illuminated
May 5
Waning Crescent
May 10
New
May 18
First Quarter
May 25
Full
May 31
Last Quarter

Hourly Weather History & Observations

Time (CEST) Temp. Windchill Dew Point Humidity Pressure Visibility Wind Dir Wind Speed Gust Speed Precip Events Conditions
12:00 AM 50.0 °F - 44.6 °F 82% 30.18 in 6.2 mi Variable 1.2 mph - N/A   Unknown
12:30 AM 50.0 °F - 42.8 °F 76% 30.18 in 6.2 mi Variable 2.3 mph - N/A   Unknown
1:00 AM 48.2 °F - 42.8 °F 82% 30.18 in 6.2 mi Variable 1.2 mph - N/A   Unknown
1:30 AM 48.2 °F - 42.8 °F 82% 30.18 in 6.2 mi West 3.5 mph - N/A   Unknown
2:00 AM 46.4 °F - 42.8 °F 87% 30.18 in 6.2 mi Variable 2.3 mph - N/A   Unknown
2:30 AM 46.4 °F - 42.8 °F 87% 30.18 in 6.2 mi SW 2.3 mph - N/A   Unknown
3:00 AM 46.4 °F 45.2 °F 42.8 °F 87% 30.18 in 6.2 mi SW 3.5 mph - N/A   Unknown
3:30 AM 46.4 °F 44.3 °F 42.8 °F 87% 30.15 in 6.2 mi West 4.6 mph - N/A   Unknown
4:00 AM 46.4 °F - 42.8 °F 87% 30.15 in 6.2 mi WSW 2.3 mph - N/A   Unknown
4:30 AM 42.8 °F - 41.0 °F 93% 30.15 in 6.2 mi Calm Calm - N/A   Unknown
5:00 AM 42.8 °F - 41.0 °F 93% 30.15 in 6.2 mi Calm Calm - N/A   Unknown
5:30 AM 41.0 °F - 39.2 °F 93% 30.15 in 6.2 mi Calm Calm - N/A   Unknown
6:00 AM 41.0 °F - 39.2 °F 93% 30.15 in 3.7 mi Calm Calm - N/A   Unknown
6:30 AM 41.0 °F - 39.2 °F 93% 30.15 in 4.3 mi Calm Calm - N/A   Unknown
7:00 AM 41.0 °F - 39.2 °F 93% 30.18 in 4.3 mi Calm Calm - N/A   Unknown
7:30 AM 41.0 °F - 41.0 °F 100% 30.18 in 4.3 mi Calm Calm - N/A   Unknown
8:00 AM 44.6 °F - 42.8 °F 93% 30.18 in 4.3 mi ENE 1.2 mph - N/A   Unknown
8:30 AM 48.2 °F - 46.4 °F 93% 30.18 in 6.2 mi Calm Calm - N/A   Unknown
9:00 AM 50.0 °F - 48.2 °F 94% 30.18 in 6.2 mi West 3.5 mph - N/A   Unknown
9:30 AM 53.6 °F - 48.2 °F 82% 30.18 in 6.2 mi Variable 3.5 mph - N/A   Unknown
10:00 AM 55.4 °F - 48.2 °F 77% 30.18 in 6.2 mi Variable 2.3 mph - N/A   Unknown
10:30 AM 59.0 °F - 50.0 °F 72% 30.18 in 6.2 mi Variable 2.3 mph - N/A   Unknown
11:00 AM 64.4 °F - 50.0 °F 59% 30.18 in 6.2 mi Variable 2.3 mph - N/A   Unknown
11:30 AM 64.4 °F - 50.0 °F 59% 30.18 in 6.2 mi Calm Calm - N/A   Unknown
12:00 PM 66.2 °F - 51.8 °F 60% 30.18 in 6.2 mi Variable 2.3 mph - N/A   Unknown
12:30 PM 68.0 °F - 51.8 °F 56% 30.18 in 6.2 mi WSW 3.5 mph - N/A   Scattered Clouds
1:00 PM 69.8 °F - 50.0 °F 49% 30.15 in 6.2 mi North 5.8 mph - N/A   Unknown
1:30 PM 69.8 °F - 46.4 °F 43% 30.15 in 6.2 mi North 6.9 mph - N/A   Unknown
2:00 PM 71.6 °F - 46.4 °F 41% 30.15 in 6.2 mi North 9.2 mph - N/A   Unknown
2:30 PM 71.6 °F - 48.2 °F 43% 30.15 in 6.2 mi North 4.6 mph - N/A   Unknown
3:00 PM 73.4 °F - 44.6 °F 36% 30.12 in 6.2 mi North 8.1 mph - N/A   Unknown
3:30 PM 73.4 °F - 48.2 °F 41% 30.12 in 6.2 mi North 9.2 mph - N/A   Unknown
4:00 PM 73.4 °F - 46.4 °F 38% 30.12 in 6.2 mi NNE 9.2 mph - N/A   Unknown
4:30 PM 75.2 °F - 44.6 °F 34% 30.09 in 6.2 mi North 9.2 mph - N/A   Unknown
5:00 PM 73.4 °F - 39.2 °F 29% 30.09 in 6.2 mi North 9.2 mph - N/A   Unknown
5:30 PM 73.4 °F - 42.8 °F 33% 30.09 in 6.2 mi North 10.4 mph - N/A   Unknown
6:00 PM 73.4 °F - 44.6 °F 36% 30.09 in 6.2 mi North 9.2 mph - N/A   Unknown
6:30 PM 73.4 °F - 42.8 °F 33% 30.09 in 6.2 mi NNW 9.2 mph - N/A   Unknown
7:00 PM 71.6 °F - 44.6 °F 38% 30.09 in 6.2 mi NNW 10.4 mph - N/A   Unknown
7:30 PM 71.6 °F - 42.8 °F 35% 30.09 in 6.2 mi NNW 10.4 mph - N/A   Unknown
8:00 PM 69.8 °F - 44.6 °F 40% 30.09 in 6.2 mi NNW 8.1 mph - N/A   Unknown
8:30 PM 66.2 °F - 44.6 °F 46% 30.09 in 6.2 mi North 5.8 mph - N/A   Unknown
9:00 PM 64.4 °F - 42.8 °F 45% 30.09 in 6.2 mi NNW 3.5 mph - N/A   Unknown
9:30 PM 60.8 °F - 42.8 °F 52% 30.12 in 6.2 mi NNW 4.6 mph - N/A   Unknown
10:00 PM 57.2 °F - 44.6 °F 63% 30.12 in 6.2 mi Calm Calm - N/A   Unknown
10:30 PM 55.4 °F - 46.4 °F 72% 30.12 in 6.2 mi Variable 2.3 mph - N/A   Unknown
11:00 PM 51.8 °F - 44.6 °F 76% 30.12 in 6.2 mi Variable 2.3 mph - N/A   Unknown
11:30 PM 51.8 °F - 42.8 °F 71% 30.12 in 6.2 mi Variable 3.5 mph - N/A   Unknown